Regional Weather Roundup
Issued by NWS Upton, NY

Current Version | Previous Version | Text Only | Print | Product List | Glossary Off
Versions: 1 2 3 4 5 6 7 8 9 10 11 12 13 14 15 16 17 18 19 20 21 22 23 24 25 26 27 28 29 30 31 32 33 34 35 36 37 38 39 40 41 42 43 44 45 46 47 48 49 50
000 ASUS41 KOKX 050918 RWROKX REGIONAL WEATHER ROUNDUP NATIONAL WEATHER SERVICE NEW YORK NY 500 AM EDT SUN JUL 05 2015 NOTE: "FAIR" INDICATES FEW OR NO CLOUDS BELOW 12,000 FEET WITH NO SIGNIFICANT WEATHER AND/OR OBSTRUCTIONS TO VISIBILITY. NYZ071-072-176-178-NJZ106-104-051000- NEW YORK CITY METRO AREA CITY SKY/WX TMP DP RH WIND PRES REMARKS CENTRAL PARK CLOUDY 70 58 65 CALM 30.08R LAGUARDIA APRT CLOUDY 70 59 68 NW6 30.05R KENNEDY INTL MOCLDY 70 61 73 W7 30.06R NEWARK/LIBERTY CLOUDY 70 60 70 W6 30.06R BRNX BOT. GARD N/A 68 59 73 W2 30.06F TETERBORO CLOUDY 68 60 75 CALM 30.05R $$ NYZ177-179-078>081-051000- LONG ISLAND NEW YORK CITY SKY/WX TMP DP RH WIND PRES REMARKS FARMINGDALE PTCLDY 65 57 75 CALM 30.06R ISLIP PTCLDY 62 55 77 CALM 30.04R SHIRLEY PTCLDY 61 55 81 CALM 30.06R WESTHAMPTON PTCLDY 57 55 93 CALM 30.06R MONTAUK POINT N/A 61 58 90 CALM 30.05R $$ NYZ052-065-067-051000- HUDSON VALLEY CITY SKY/WX TMP DP RH WIND PRES REMARKS WHITE PLAINS CLEAR 61 58 90 NW3 30.05R FOG NEWBURGH CLEAR 59 59 100 CALM 30.07R MONTGOMERY FOG 56 55 97 S3 30.06R VSB 3/4 POUGHKEEPSIE CLEAR 56 53 90 CALM 30.05R FOG ALBANY PTCLDY 58 56 93 CALM 30.05R FOG $$ NJZ001-105-106-008-010-013-015-019>022-104-051000- NEW JERSEY CITY SKY/WX TMP DP RH WIND PRES REMARKS NEWARK/LIBERTY CLOUDY 70 60 70 W6 30.06R TETERBORO CLOUDY 68 60 75 CALM 30.05R CALDWELL CLOUDY 63 59 87 CALM 30.07R MORRISTOWN CLEAR 61 59 94 CALM 30.07R FOG SOMERVILLE PTCLDY 61 58 90 CALM 30.06R FOG SUSSEX CLOUDY 58 56 93 CALM 30.08R FOG ANDOVER N/A 59 58 96 CALM 30.09R TRENTON MOCLDY 65 60 84 N5 30.07R MILLVILLE CLOUDY 67 61 81 NW3 30.06S ATLANTIC CITY CLOUDY 67 63 87 CALM 30.06R WRIGHTSTOWN CLOUDY 67 59 75 CALM 30.05R TOMS RIVER CLOUDY 66 59 77 CALM 30.07R BELMAR CLOUDY 66 55 68 NW3 30.07R $$ PAZ047>061-062-071-051000- EASTERN PENNSYLVANIA CITY SKY/WX TMP DP RH WIND PRES REMARKS PHILADELPHIA PTCLDY 68 58 70 NW5 30.07R ALLENTOWN PTCLDY 61 59 94 CALM 30.08F FOG SCRANTON FOG 63 60 90 SW5 30.09S VSB 3/4 $$ CTZ002-004>006-009-010-012-RIZ004-006-007-MAZ004-011-015-051000- SOUTHERN NEW ENGLAND IN CT CITY SKY/WX TMP DP RH WIND PRES REMARKS BRADLEY INTL CLEAR 55 53 93 CALM 30.03R FOG HARTFORD CLEAR 58 56 93 S3 30.04R FOG DANBURY CLEAR 55 52 89 W3 30.06S FOG WTRBRY/OXFORD CLEAR 57 52 82 CALM 30.07R BRIDGEPORT CLEAR 64 60 87 CALM 30.04S MERIDEN PTCLDY 56 53 90 CALM 30.04S FOG NEW HAVEN CLEAR 57 55 93 CALM 30.04S FOG CHESTER FAIR 61 57 88 W3 30.06R GROTON CLEAR 59 56 89 NE3 30.03R WILLIMANTIC FOG 56 55 97 CALM 30.04S VSB 1/4 IN RI CITY SKY/WX TMP DP RH WIND PRES REMARKS PROVIDENCE CLEAR 59 57 93 SW5 30.02S BLOCK ISLAND PTCLDY 63 57 82 W6 30.03S WESTERLY CLEAR 57 55 93 CALM 30.04S FOG IN MA CITY SKY/WX TMP DP RH WIND PRES REMARKS BOSTON PTCLDY 63 57 81 W8 30.01R WORCESTER CLEAR 60 55 83 W13 30.04R WESTFIELD FOG 54 53 97 SE3 30.04R VSB 1 PROVINCETOWN CLEAR 57 1 10 W7 30.01S NANTUCKET CLEAR 60 55 83 W6 30.01S $$ ANZ330-335-338-340-345-350-353-355-051000- COASTAL MARINE OBSERVATIONS STATION/POSITION TIME SKY/WX TEMP WIND PRES VSBY WAVE AIR SEA DIR/SP/G HT/PER (UTC) (F) (DEG/KT/KT) (MB) (MI) (FT/S) NY HARB ENTRANCE 0850 70 69 270/ 8/ 8 1017.5 4/ 8 4S FIRE IS 0803 70 N/A 3/ 8 20S FIRE ISLAND 0850 68 69 280/ 6/ 8 1017.6 5/ 8 GREAT SOUTH BAY 0800 70 74 310/ 6/ 8 N/A 23SW MTP 0850 67 68 290/ 8/ 8 1017.0 4/ 8 HUDSON CANYON NOT AVBL KINGS POINT 0800 66 66 20/ 1/ 2 1016.7 CENTRAL LI SOUND NOT AVBL EASTERN LI SOUND 0800 63 63 300/ 6/ 6 N/A ROBBINS REEF 0800 71 280/ 4/ 5 1016.4 $$ >>>>>>>>>>>>>>>>>>>>>>>>>>>> KEY <<<<<<<<<<<<<<<<<<<<<<<<<<< > < > SKY/WX - SKY CONDITION/PRESENT WEATHER < > TMP - TEMPERATURE IN FAHRENHEIT < > DP - DEWPOINT IN FAHRENHEIT < > RH - RELATIVE HUMIDITY IN PERCENT < > WIND - DIRECTION AND SPEED IN MPH < > PRES - MEAN SEA LEVEL PRESSURE IN INCHES OF HG < > WCI - WIND CHILL INDEX < > VSB - VISIBILITY IN MILES < > HX - HEAT INDEX < > TC - TEMPERATURE IN CELSIUS < > VRB - VARIABLE WIND DIRECTION < > < >>>>>>>>>>>>>>>>>>>>>>>>>>>> KEY <<<<<<<<<<<<<<<<<<<<<<<<<<<

USA.gov is the U.S. government's official web portal to all federal, state and local government web resources and services.